Mound City, IL

9:57 AM CST on February 14, 2016 (GMT -0600)
Cairo Regional

Weather History for KCIR - January, 2012

Change the Weather History Date:

Friday, January 20, 2012

  Actual Average Record
Temperature  
Mean Temperature 36 °F -  
Max Temperature 42 °F 40 °F 68 °F (1951)
Min Temperature 30 °F 25 °F -12 °F (1985)
Degree Days  
Heating Degree Days 29    
Moisture  
Dew Point 28 °F    
Average Humidity 73    
Maximum Humidity 80    
Minimum Humidity 65    
Precipitation  
Precipitation 0.00 in - - ()
Sea Level Pressure  
Sea Level Pressure 29.96 in    
Wind  
Wind Speed 11 mph (NE)    
Max Wind Speed 15 mph    
Max Gust Speed 21 mph    
Visibility 10 miles    
Events      
Averages and records for this station are not official NWS values.
T = Trace of Precipitation, MM = Missing Value Source: NWS Daily Summary

Daily Weather History Graph

Daily Weather History Graph

Search for Another Location

Airport or City:

Trip Planner

Search our weather history database for the weather conditions in past years. The results will help you decide how hot, cold, wet, or windy it might be!

Date:

Astronomy

Jan. 20, 2012 Rise Set
Actual Time 7:07 AM CST 5:08 PM CST
Civil Twilight 6:39 AM CST 5:36 PM CST
Nautical Twilight 6:07 AM CST 6:08 PM CST
Astronomical Twilight 5:36 AM CST 6:39 PM CST
Moon 4:43 AM CST (1/20) 2:41 PM CST (1/20)
Length of Visible Light 10h 57m
Length of Day
10h 00m
Waning Crescent, 8% of the Moon is Illuminated
Jan 20
Waning Crescent
Jan 23
New
Jan 30
First Quarter
Feb 7
Full
Feb 14
Last Quarter

Hourly Weather History & Observations

Time (CST) Temp. Windchill Dew Point Humidity Pressure Visibility Wind Dir Wind Speed Gust Speed Precip Events Conditions
12:15 AM 32.0 °F 22.5 °F 24.8 °F 75% 30.07 in 10.0 mi NE 12.7 mph - N/A   Overcast
12:35 AM 32.0 °F 23.0 °F 26.6 °F 80% 30.07 in 10.0 mi NE 11.5 mph 16.1 mph N/A   Overcast
12:55 AM 32.0 °F 23.0 °F 24.8 °F 75% 30.08 in 10.0 mi NE 11.5 mph - N/A   Overcast
1:15 AM 32.0 °F 22.1 °F 24.8 °F 75% 30.07 in 10.0 mi ENE 13.8 mph - N/A   Overcast
1:35 AM 32.0 °F 23.0 °F 24.8 °F 75% 30.07 in 10.0 mi NE 11.5 mph - N/A   Overcast
1:55 AM 32.0 °F 23.6 °F 24.8 °F 75% 30.06 in 10.0 mi NE 10.4 mph - N/A   Overcast
2:15 AM 32.0 °F 23.0 °F 24.8 °F 75% 30.06 in 10.0 mi NNE 11.5 mph 18.4 mph N/A   Mostly Cloudy
2:35 AM 32.0 °F 23.6 °F 24.8 °F 75% 30.07 in 10.0 mi NNE 10.4 mph - N/A   Mostly Cloudy
2:55 AM 32.0 °F 23.0 °F 24.8 °F 75% 30.07 in 10.0 mi NNE 11.5 mph - N/A   Overcast
3:15 AM 32.0 °F 22.1 °F 24.8 °F 75% 30.06 in 10.0 mi NE 13.8 mph - N/A   Overcast
3:35 AM 32.0 °F 22.1 °F 24.8 °F 75% 30.05 in 10.0 mi NE 13.8 mph - N/A   Overcast
3:55 AM 32.0 °F 22.1 °F 24.8 °F 75% 30.04 in 10.0 mi NNE 13.8 mph - N/A   Overcast
4:15 AM 32.0 °F 22.5 °F 24.8 °F 75% 30.05 in 10.0 mi NE 12.7 mph - N/A   Overcast
4:35 AM 32.0 °F 23.0 °F 24.8 °F 75% 30.05 in 10.0 mi NE 11.5 mph - N/A   Overcast
4:55 AM 32.0 °F 23.6 °F 24.8 °F 75% 30.07 in 10.0 mi NE 10.4 mph - N/A   Overcast
5:15 AM 32.0 °F 21.6 °F 24.8 °F 75% 30.06 in 10.0 mi NE 15.0 mph - N/A   Overcast
5:35 AM 30.2 °F 21.9 °F 23.0 °F 75% 30.05 in 10.0 mi NNE 9.2 mph - N/A   Overcast
5:55 AM 30.2 °F 19.8 °F 23.0 °F 75% 30.05 in 10.0 mi NNE 13.8 mph - N/A   Overcast
6:15 AM 30.2 °F 19.3 °F 23.0 °F 75% 30.04 in 10.0 mi NE 15.0 mph - N/A   Overcast
6:35 AM 30.2 °F 20.2 °F 24.8 °F 80% 30.05 in 10.0 mi NE 12.7 mph - N/A   Overcast
6:55 AM 30.2 °F 20.2 °F 24.8 °F 80% 30.03 in 10.0 mi NE 12.7 mph - N/A   Overcast
7:15 AM 32.0 °F 22.1 °F 24.8 °F 75% 30.03 in 10.0 mi NE 13.8 mph 20.7 mph N/A   Overcast
8:15 AM 32.0 °F 22.5 °F 24.8 °F 75% 30.03 in 10.0 mi ENE 12.7 mph - N/A   Overcast
8:35 AM 32.0 °F 23.6 °F 24.8 °F 75% 30.03 in 10.0 mi ENE 10.4 mph - N/A   Overcast
8:55 AM 32.0 °F 24.2 °F 24.8 °F 75% 30.03 in 10.0 mi ENE 9.2 mph - N/A   Overcast
9:15 AM 33.8 °F 25.8 °F 26.6 °F 75% 30.03 in 10.0 mi ENE 10.4 mph - N/A   Overcast
9:55 AM 35.6 °F 27.5 °F 26.6 °F 70% 29.99 in 10.0 mi ENE 11.5 mph - N/A   Overcast
10:35 AM 37.4 °F 31.4 °F 28.4 °F 70% 29.98 in 10.0 mi East 8.1 mph - N/A   Mostly Cloudy
10:55 AM 39.2 °F 33.6 °F 28.4 °F 65% 29.99 in 10.0 mi ENE 8.1 mph - N/A   Overcast
11:15 AM 39.2 °F 33.6 °F 28.4 °F 65% 29.97 in 10.0 mi NE 8.1 mph - N/A   Overcast
11:35 AM 39.2 °F 34.2 °F 28.4 °F 65% 29.96 in 10.0 mi ENE 6.9 mph - N/A   Overcast
11:55 AM 39.2 °F 33.0 °F 30.2 °F 70% 29.94 in 10.0 mi NE 9.2 mph - N/A   Overcast
12:15 PM 39.2 °F 33.0 °F 30.2 °F 70% 29.92 in 10.0 mi ENE 9.2 mph - N/A   Overcast
12:35 PM 41.0 °F 35.2 °F 30.2 °F 65% 29.90 in 10.0 mi NE 9.2 mph - N/A   Overcast
12:55 PM 41.0 °F 35.2 °F 30.2 °F 65% 29.89 in 10.0 mi ENE 9.2 mph - N/A   Overcast
1:15 PM 41.0 °F 35.2 °F 30.2 °F 65% 29.87 in 10.0 mi ENE 9.2 mph - N/A   Overcast
1:35 PM 41.0 °F 36.4 °F 30.2 °F 65% 29.87 in 10.0 mi ENE 6.9 mph - N/A   Overcast
2:15 PM 42.8 °F 36.6 °F 32.0 °F 66% 29.83 in 10.0 mi ENE 11.5 mph - N/A   Overcast
2:35 PM 42.8 °F 37.5 °F 32.0 °F 66% 29.82 in 10.0 mi ENE 9.2 mph - N/A   Overcast
2:55 PM 42.8 °F 37.5 °F 32.0 °F 66% 29.82 in 10.0 mi East 9.2 mph - N/A   Overcast
3:15 PM 42.8 °F 38.6 °F 33.8 °F 70% 29.82 in 10.0 mi East 6.9 mph - N/A   Overcast
3:35 PM 42.8 °F 38.6 °F 33.8 °F 70% 29.80 in 10.0 mi East 6.9 mph - N/A   Overcast
3:55 PM 42.8 °F 38.0 °F 33.8 °F 70% 29.80 in 10.0 mi East 8.1 mph - N/A   Overcast
4:15 PM 42.8 °F 38.0 °F 35.6 °F 76% 29.80 in 10.0 mi ENE 8.1 mph - N/A   Overcast
4:35 PM 42.8 °F 38.6 °F 35.6 °F 76% 29.81 in 10.0 mi ENE 6.9 mph - N/A   Overcast
4:55 PM 42.8 °F 38.6 °F 35.6 °F 76% 29.80 in 10.0 mi ENE 6.9 mph - N/A   Overcast
5:15 PM 42.8 °F 39.3 °F 35.6 °F 76% 29.82 in 7.0 mi NE 5.8 mph - N/A   Overcast
5:35 PM 42.8 °F 41.1 °F 35.6 °F 76% 29.82 in 10.0 mi North 3.5 mph - N/A   Overcast
5:55 PM 42.8 °F 41.1 °F 35.6 °F 76% 29.82 in 7.0 mi NNE 3.5 mph - N/A   Overcast
6:15 PM 42.8 °F 41.1 °F 35.6 °F 76% 29.82 in 7.0 mi North 3.5 mph - N/A   Overcast
6:55 PM 42.8 °F 41.1 °F 37.4 °F 81% 29.82 in 7.0 mi North 3.5 mph - N/A   Overcast
7:15 PM 42.8 °F 38.0 °F 37.4 °F 81% 29.82 in 7.0 mi North 8.1 mph - N/A   Overcast
7:35 PM 41.0 °F 34.3 °F 37.4 °F 87% 29.83 in 7.0 mi NNW 11.5 mph - N/A   Overcast
7:55 PM 41.0 °F 34.7 °F 35.6 °F 81% 29.83 in 7.0 mi NNW 10.4 mph - N/A   Overcast
8:15 PM 41.0 °F 35.8 °F 35.6 °F 81% 29.84 in 10.0 mi North 8.1 mph - N/A   Overcast
8:35 PM 41.0 °F 34.7 °F 35.6 °F 81% 29.85 in 10.0 mi NNW 10.4 mph - N/A   Overcast
8:55 PM 41.0 °F 36.4 °F 35.6 °F 81% 29.85 in 10.0 mi North 6.9 mph - N/A   Overcast
9:15 PM 41.0 °F 34.7 °F 35.6 °F 81% 29.86 in 7.0 mi NNW 10.4 mph - N/A   Overcast
9:35 PM 39.2 °F 30.8 °F 33.8 °F 81% 29.86 in 7.0 mi NNW 15.0 mph - N/A   Overcast
9:55 PM 37.4 °F 27.8 °F 33.8 °F 87% 29.86 in 7.0 mi NNW 17.3 mph - N/A   Overcast
10:15 PM 37.4 °F 28.2 °F 33.8 °F 87% 29.87 in 7.0 mi North 16.1 mph 19.6 mph N/A   Overcast
10:35 PM 37.4 °F 30.3 °F 32.0 °F 81% 29.87 in 7.0 mi North 10.4 mph - N/A   Overcast
10:55 PM 35.6 °F 27.1 °F 32.0 °F 87% 29.88 in 7.0 mi North 12.7 mph 16.1 mph N/A   Overcast
11:15 PM 35.6 °F 27.5 °F 32.0 °F 87% 29.90 in 7.0 mi North 11.5 mph - N/A   Overcast
11:35 PM 35.6 °F 27.1 °F 32.0 °F 87% 29.91 in 7.0 mi NNW 12.7 mph - N/A   Overcast
11:55 PM 35.6 °F 26.2 °F 32.0 °F 87% 29.91 in 7.0 mi North 15.0 mph - N/A   Overcast